This is the latest recevied weather packets stored in our database for station/object K1WJY. If no packets are shown the sender has not sent any weather packets the latest 10 day(s).
| Time | Temp. | Humidity | Pressure | Rain* | Wind** | Luminosity | Snow |
|---|---|---|---|---|---|---|---|
| 1787784469 | 21.67° C | 74% | 1018.8 hPa | 0 mm | - | 19 W/m² | - |
| 1787784169 | 22.22° C | 73% | 1019 hPa | 0 mm | - | 22 W/m² | - |
| 1787783865 | 22.22° C | 73% | 1018.8 hPa | 0 mm | - | 25 W/m² | - |
| 1787783561 | 22.22° C | 72% | 1018.7 hPa | 0 mm | - | 29 W/m² | - |
| 1787783255 | 22.78° C | 71% | 1018.9 hPa | 0 mm | - | 32 W/m² | - |
| 1787782951 | 22.78° C | 71% | 1019 hPa | 0 mm | - | 36 W/m² | - |
| 1787782650 | 22.78° C | 70% | 1018.9 hPa | 0 mm | - | 40 W/m² | - |
| 1787782345 | 23.33° C | 70% | 1018.9 hPa | 0 mm | - | 46 W/m² | - |
| 1787782041 | 23.33° C | 70% | 1018.8 hPa | 0 mm | - | 68 W/m² | - |
| 1787781736 | 23.33° C | 69% | 1018.7 hPa | 0 mm | - | 54 W/m² | - |
| 1787781433 | 23.33° C | 71% | 1018.5 hPa | 0 mm | - | 95 W/m² | - |
| 1787781128 | 23.89° C | 70% | 1018.7 hPa | 0 mm | - | 82 W/m² | - |
| 1787780827 | 24.44° C | 71% | 1018.5 hPa | 0 mm | - | 69 W/m² | - |
| 1787780527 | 25° C | 69% | 1018.6 hPa | 0 mm | - | 114 W/m² | - |
| 1787780222 | 24.44° C | 69% | 1018.5 hPa | 0 mm | - | 163 W/m² | - |
| 1787779918 | 25° C | 69% | 1018.4 hPa | 0 mm | - | 124 W/m² | - |
| 1787779617 | 25° C | 69% | 1018.5 hPa | 0 mm | - | 109 W/m² | - |
| 1787779317 | 25° C | 69% | 1018.3 hPa | 0 mm | - | 84 W/m² | - |
| 1787779012 | 25° C | 69% | 1018.5 hPa | 0 mm | - | 99 W/m² | - |
| 1787778708 | 25° C | 68% | 1018.5 hPa | 0 mm | - | 59 W/m² | - |
| 1787778404 | 25° C | 68% | 1018.4 hPa | 0 mm | - | 92 W/m² | - |
| 1787778099 | 25° C | 68% | 1018.4 hPa | 0 mm | - | 193 W/m² | - |
| 1787777798 | 25° C | 68% | 1018.3 hPa | 0 mm | - | 88 W/m² | - |
| 1787777495 | 25.56° C | 66% | 1018.4 hPa | 0 mm | - | 93 W/m² | - |
| 1787777195 | 25.56° C | 66% | 1018.2 hPa | 0 mm | - | 108 W/m² | - |
* Rain latest hour (hover to see other rain measurements)
** Current wind speed in m/s (hover to see current wind gust speed)